User: anonymous   Login
Location: The Jewett Observatory
(46.7288°N, 117.1525°W)
Time: 00:12:37
(UTC-07:00)
Language:

Cosmos 1844 Rocket - Orbit

View from above orbital plane
View from above orbital plane
View from above satellite
View from above satellite

Ground track
Ground track

The orbit data is extracted from the following two-line orbital elements,

1 17974U 87041B   16241.21688845  .00000162  00000-0  10386-3 0  9994
2 17974  71.0087 167.0915 0012098 126.2842 337.4452 14.17205164515175
Epoch (UTC): 28 August 2016 05:12:19
Eccentricity: 0.0012098
inclination: 71.0087°
perigee height: 826 km
apogee height: 843 km
right ascension of ascending node: 167.0915°
argument of perigee: 126.2842°
revolutions per day: 14.17205164
mean anomaly at epoch: 337.4452°
orbit number at epoch: 51517

The dashed part of the orbit path shows where the satellite is in the earth's shadow,  

DLR